Tracking 35331 objects as of 16-Sep-2026
HD Live streaming from Space Station
objects crossing your sky now

COSMOS 1485 DEB


COSMOS 1485 DEB is no longer on orbit


NORAD ID: 14254
Int'l Code: 1983-076E
Launch date: July 26, 1983
Source: Commonwealth of Independent States (former USSR) (CIS)
Launch site: PLESETSK MISSILE AND SPACE COMPLEX (PKMTR)
Decay date: 1983-10-30

Note: This is SATELLITE DEBRIS
Your satellite tracking list
Your tracking list is empty




NASA's NSSDC Master Catalog

Two Line Element Set (TLE):
1 14254U 83076  E 83303.55706216  .14685274 +84606-5 +14564-2 0  9997
2 14254 072.8259 253.2888 0005655 262.2144 098.5208 16.38010472015144
Source of the keplerian elements: AFSPC